Погода Миллерово

Погода Миллерово : погода сейчас, прогноз погоды и архив. Всё, что Вы хотите узнать о погоде Миллерово!

Хотите узнать прогноз погоды Миллерово? Тогда Вам сюда: Погода Миллерово

Поиск расширенной информации на нашем сайте:

Другие новости

Новости СМИ2

Главная страница сайта

Новости сайта

03.07.2017

Напоминаем, что на нашем специализированном сайте Метеоцентр.Азия вы можете получить высокодетализированные автоматические прогнозы погоды по пунктам России, СНГ и мира в авиационном формате (включающие направление и скорость ветра, видимость, явления погоды, количество и форму облачности, нижнюю и верхнюю границу облачности).


Погода Миллерово - сегодня

Время (UTC), дата Ветер
(°,м/с) 
Видим.   Явления Облачность Т
(°С)
Тd
(°С)
f(%) Тe
(°С)
Pmin
(гПа)
dP
(гПа)
Po
(мм)
O2
(г/м3)
Тmin Tmax R s Состояние
почвы
00 12.11.18 070 (В) 6-11{12}  10 км    9/9 300 м кучево-дожд. 
[Cb calv]
-3.8 -10.8 58 -8  1040  -0.1  765  314           
03 12.11.18 060 (СВ) 8-11  10 км    6/6 1000 м 
[Sc]
-6 -11.9 63 -12  1040.8  0.6  765  316  -6         
06 12.11.18 070 (В) 8-12{14}  10 км    9/6 600 м средняя 
[Sc|Ac trans]
-6.9 -12.2 66 -13  1041.5  0.7  766  318  -7.1         
09 12.11.18 070 (В) 6-11{13}  10 км    9/9 600 м 
[Sc]
-4.2 -10.4 62 -8  1041.4  0.1  766  314           
12 12.11.18 070 (В) 8-12{15}  10 км  слаб. ливневой снег  10/10 600 м кучево-дожд. 
[Cb calv]
-3.9 -9.5 65 -9  1041.3  -0.2  766  314           
15 12.11.18 070 (В) 10 км  слаб. ливневой снег  10/10 300 м кучево-дожд. 
[Cb calv]
-5.6 -9.8 72 -10  1042.1  0.7  766  316    -1.8  0.2     
18 12.11.18 070 (В) 7-10{13}  10 км  слаб. ливневой снег  10/10 300 м кучево-дожд. 
[Cb calv]
-6 -9.2 78 -11  1042  -0.1  766  317           
21 12.11.18 070 (В) 5{11}  10 км  слаб. ливневой снег  10/10 300 м кучево-дожд. 
[Cb calv]
-6.7 -9.7 79 -11  1041.9  -0.2  766  317           
00 13.11.18 060 (СВ) 5{11}  10 км  слаб. ливневой снег  10/10 300 м кучево-дожд. 
[Cb calv]
-7.6 -9.3 88 -12  1041  -0.9  765  318           
03 13.11.18 060 (СВ) 10 км  слаб. ливневой снег  9/9 300 м кучево-дожд. 
[Cb calv]
-7.7 -10.4 81 -11  1040.6  -0.4  765  318  -8.3       
06 13.11.18 050 (СВ) 7{10}  10 км  слаб. ливневой снег  9/8 300 м кучево-дожд., средняя 
[Cb calv|Ac trans]
-6.7 -10.1 77 -12  1040.3  -0.2  765  317           
12 13.11.18 080 (В) 6{11}  10 км  {ливн. осадки}  9/4 600 м средняя 
[Sc|Ac lent]
-2.1 -11.4 49 -6  1039  -0.6  764  311           
15 13.11.18 080 (В) 6-11  10 км    10/10 600 м 
[Sc]
-1.9 -14.4 38 -6  1039.3  0.3  764  311    -1.6  0.0     
18 13.11.18 080 (В) 5{11}  10 км    10/10 300 м 
[Sc]
-3.3 -13.6 45 -7  1039.3  -0.1  764  313           
21 13.11.18 090 (В) 6{10}  10 км    10/10 300 м 
[Sc]
-3.9 -12.8 50 -8  1038.2  -1.1  764  313           
00 14.11.18 080 (В) 10 км    9/9 300 м 
[Sc]
-5.4 -13.5 53 -8  1038.1  -0.2  763  315           
03 14.11.18 060 (СВ) 10 км    ясно 
-7.2 -13.3 62 -11  1036.1  -2.1  762  316  -7.7      равномерный
сухой снег
100% 
06 14.11.18 090 (В) 10 км    ясно 
-5.3 -11.6 61 -9  1035.9  -0.1  762  314           
09 14.11.18 090 (В) 10 км    3/0 средняя 
[Ac As]
-1.3 -7.7 62 -4  1034.3  -1.2  761  309           
12 14.11.18 090 (В) 10 км    ясно 
+1.6 -8.7 46 -1  1032.6  -1.5  760  305           
15 14.11.18 080 (В) 10 км    ясно 
-3 -9.9 59 -4  1032.5  -0.4  759  310    +1.6       
18 14.11.18 100 (В) 7{10}  10 км    6/0 средняя 
[Ac As]
-2.1 -11.5 49 -6  1031.7  -0.7  759  309           
21 14.11.18 090 (В) 10 км    10/10 600 м 
[Sc]
-1.2 -11.8 44 -4  1031.2  -0.5  758  308           
00 15.11.18 080 (В) 6{11}  10 км    10/10 600 м 
[Sc]
-1.5 -11.6 46 -5  1030.6  -0.6  758  308           
03 15.11.18 080 (В) 10 км    10/10 600 м 
[Sc]
-3.1 -12.2 49 -7  1030.6  -0.2  758  310  -3.1      <0.5  мокрый или
старый снег
10-40% 
Время (UTC), дата Ветер
(°,м/с) 
Видим.   Явления Облачность Т
(°С)
Тd
(°С)
f(%) Тe
(°С)
Pmin
(гПа)
dP
(гПа)
Po
(мм)
O2
(г/м3)
Тmin Tmax R s Состояние
почвы

Для получения пояснительной информации подведите курсор к названию столбца.

ПОГОДА Миллерово - архив

Всё, что Вы хотите узнать о погоде Миллерово - удобно и подробно!

Выберите нужную дату (начиная с 1 января 2015* года) и нажмите кнопку "Найти".
Будут отображены архивные сводки погоды по пункту Миллерово, начиная с указанной даты.


Отображать данные в формате CSV (для использования в таблицах Excel)


Внимание! Наш архив погоды предназначен исключительно для личного некоммерческого использования в познавательных целях. Если Вам необходимы официальные справки о состоянии погоды (для производственных, юридических, коммерческих и т.п. целей), обращайтесь в органы Росгидромета.

*Примечание: данная дата относится к архиву по метеостанциям СССР (Россия, СНГ, Балтия).
Архив по метеостанциям Зарубежной Европы и Азии (кроме Китая) хранится 10 дней, по другим регионам земного шара (Китай, Африка, Америка, Австралия, Океания) - 1 день.

Миллерово - район местоположения метеостанции


Название, широта, долгота, высота метеостанции:
Миллерово 48.9°ш. 40.4°д. 155 м над ур. моря [Российская Федерация]

Дополнительная информация

В oтличие oт бoльшинства пoгoдных сайтoв мы публикуем пoдрoбную метеoинфoрмацию в детальнoм прoфессиoнальнoм фoрмате.

Характеристики температуры и влажнoсти вoздуха измеряются на высoте 2 м в тени вдали oт зданий и деревьев.
Скoрoсть ветра измеряется на высoте 10 м (на урoвне рoста челoвека скoрoсть ветра ниже в 1.5-2 раза). Если метеoстанция нахoдится в гoрoде или в лесу, тo скoрoсть ветра занижена на 2-4 м/с пo сравнению с oткрытым местoм. Скoрoсть ветра над акватoриями крупных рек и oзёр, а также на вершинах хoлмoв на 2-5 м/с выше, чем в oбычных услoвиях.
Атмoсфернoе давление в разных тoчках местнoсти мoжет значительнo oтличаться oт давления на метеoстанции, в зависимoсти oт услoвий рельефа (при пoдъёме на 10 м давление пoнижается примернo на 1 мм рт.ст.).